Location: Grantham
(50.0698°N, 112.0083°W)
Time: 01:52:34
(UTC+00:00)

N. Korean satellite - Visible Passes

Search period start: 07 December 2021 00:00
Search period end: 17 December 2021 00:00
Orbit: 446 x 495 km, 97.3° (Epoch: 06 December)

Date Brightness Start Highest point End Pass type
(mag) Time Alt. Az. Time Alt. Az. Time Alt. Az.
07 Dec 6.5 12:48:09 10° NNE 12:51:33 74° ESE 12:54:55 10° S visible
07 Dec 8.4 14:23:31 10° NW 14:24:13 10° WNW 14:24:55 10° WNW visible
08 Dec 9.8 01:01:31 10° WSW 01:03:13 13° W 01:04:54 10° WNW visible
08 Dec 8.2 12:19:50 10° NNE 12:22:55 32° E 12:26:00 10° SSE visible
08 Dec 7.7 13:53:26 10° NNW 13:55:57 20° WNW 13:58:28 10° WSW visible
09 Dec 9.0 00:31:29 10° SSW 00:34:27 26° W 00:37:25 10° NW visible
09 Dec 9.4 11:52:01 10° NE 11:54:11 16° E 11:56:19 10° SE visible
09 Dec 6.8 13:24:22 10° N 13:27:34 39° WNW 13:30:44 10° SW visible
10 Dec 7.3 00:02:22 10° S 00:05:48 55° W 00:09:11 10° NNW visible
10 Dec 7.4 12:55:39 10° NNE 13:00:22 35° SSW 13:02:27 10° SSW visible
11 Dec 10.1 01:10:03 10° W 01:10:49 11° W 01:11:35 10° WNW visible
11 Dec 8.5 12:27:13 10° NNE 12:32:12 22° SSE 12:33:39 10° S visible
11 Dec 8.4 14:01:08 10° NNW 14:06:18 - WSW 14:01:56 13° NW visible
12 Dec 9.3 00:39:16 10° SW 00:41:59 21° W 00:44:42 10° NW visible
12 Dec 9.5 12:03:50 12° SE 12:03:50 12° SE 12:04:13 10° SE visible
12 Dec 8.5 13:31:56 10° N 13:37:55 11° SW 13:38:04 10° SW visible
13 Dec 7.8 00:09:57 10° S 00:13:16 44° W 00:16:35 10° NNW visible
13 Dec 8.8 13:03:07 10° N 13:09:27 13° SSW 13:09:53 10° SSW visible
14 Dec 9.1 12:40:54 12° S 12:40:54 12° S 12:41:13 10° S visible
14 Dec9.014:15:00WSW14:15:00WSW14:08:17NNWvisible
15 Dec 9.5 00:47:05 10° SW 00:49:28 18° W 00:51:52 10° NW visible
15 Dec9.712:12:19SSE12:12:19SSE12:05:07NNEvisible
15 Dec9.113:46:24SW13:46:24SW13:39:10Nvisible
16 Dec 8.3 00:17:30 10° SSW 00:20:42 36° W 00:23:53 10° NNW visible
16 Dec10.311:43:41SE11:43:41SE11:36:01NEvisible
16 Dec9.413:17:46SSW13:17:46SSW13:10:05Nvisible
